www.pogodaiklimat.ru

Погода и климат >> Архив погоды >> Россия >> Ямало-Ненецкий АО >> Гыда


ПОГОДА в Гыде

  • Прогноз погоды в Гыде
  • Монитор погоды в Гыде

АРХИВ ПОГОДЫ в Гыде

Время (UTC), дата Ветер
(напр.,м/с)
 
Видим.   Явления Облачность Т
(С)
Тd
(С)
f
(%)
Тe
(С)
Тes
(С)
Комфортность P
(гПа)
Po
(гПа)
Тmin
(С)
Tmax
(С)
R
(мм)
R24
(мм)
S
(см)
00 12.09 С 12-15
{16}
н/о н/о +1.7 -2.2 75 -6 -6 1015.2 1014.1
03 12.09 С 12-15
{16}
н/о н/о +2.4 -1.0 78 -5 -5 1015.7 1014.7 +1.6
06 12.09 С 11-13
{17}
н/о н/о +3.3 0.0 79 -4 -4 1017.0 1016.0 +1.6
09 12.09 С 10-12
{14}
н/о н/о +4.3 +1.0 79 -2 -2 1017.0 1016.0
12 12.09 С 9-14
{14}
н/о н/о +3.9 +1.3 83 -3 -3 1018.3 1017.3
15 12.09 С 7
{14}
н/о н/о +3.2 +1.2 87 -3 -3 1018.3 1017.3 0.3
18 12.09 СВ 7 н/о н/о +2.6 -0.8 78 -4 -4 1017.3 1016.2 +4.7 0.3
21 12.09 С 7
{10}
н/о н/о +2.0 -1.3 79 -4 -4 1017.3 1016.1
00 13.09 СВ 5 н/о н/о +1.6 -1.5 80 -4 -4 1017.0 1016.0
03 13.09 СВ 4 н/о н/о +1.2 -0.6 88 -4 -4 1017.0 1016.0 +1.0
06 13.09 СВ 5 н/о н/о +2.5 -2.0 72 -3 -3 1017.0 1016.0 +1.0
09 13.09 СВ 5 н/о н/о +4.1 -2.1 64 -1 -1 1017.0 1016.0
12 13.09 СВ 4 н/о н/о +2.4 -1.4 76 -2 -2 1017.0 1016.0
15 13.09 СВ 4 н/о н/о +1.3 -2.5 76 -4 -4 1017.0 1016.0
18 13.09 СВ 5 н/о н/о -0.2 -3.1 81 -6 -6 1017.0 1016.0 +4.3
21 13.09 СВ 3 н/о н/о 0.0 -2.5 83 -5 -5 1017.0 1016.0
00 14.09 СВ 1 н/о н/о -1.2 -2.3 92 -3 -3 1017.0 1016.0
03 14.09 С 5 н/о н/о +1.3 -0.3 89 -5 -5 1017.0 1016.0 -1.5
06 14.09 С 5 н/о н/о +2.5 +0.1 84 -3 -3 1017.0 1016.0 -1.5
09 14.09 С 6 н/о н/о +3.6 +0.6 81 -2 -2 1015.7 1014.7
12 14.09 С 7 н/о н/о +3.9 +1.4 84 -2 -2 1015.7 1014.7
15 14.09 С 5 н/о н/о +2.8 +1.2 89 -3 -3 1015.0 1013.9
18 14.09 С 4 н/о н/о +1.6 +0.6 93 -4 -4 1014.5 1013.3 +4.0
21 14.09 С 5 н/о н/о +1.5 +0.3 92 -4 -4 1015.7 1014.7
00 15.09 С 5 н/о н/о +0.4 -0.7 92 -6 -6 1015.7 1014.7
03 15.09 С 4 н/о н/о +2.1 -0.2 85 -3 -3 1014.3 1013.3 +0.3
06 15.09 СЗ 3 н/о н/о +3.0 +0.6 84 -1 -1 1014.3 1013.3 +0.3
09 15.09 СВ 3 н/о н/о +2.9 +1.3 89 -1 -1 1014.3 1013.3
12 15.09 В 2 н/о н/о +2.7 +0.4 85 -0 1013.0 1012.0
15 15.09 В 2 н/о н/о -0.3 -1.1 94 -4 -4 1013.0 1012.0 0.5
18 15.09 ЮВ 2 н/о н/о -0.7 -1.5 94 -5 -5 1013.0 1012.0 +3.4 0.5
21 15.09 ЮВ 2 н/о н/о +0.1 -1.3 90 -4 -4 1013.0 1012.0
00 16.09 В 4 н/о н/о -0.7 -1.5 94 -6 -6 1013.0 1012.0
03 16.09 В 5 н/о н/о +1.0 -0.8 88 -5 -5 1011.7 1010.7 -1.2
06 16.09 ЮВ 5 н/о н/о +2.3 -0.8 80 -3 -3 1010.3 1009.3 -1.0
09 16.09 В 6-11
{13}
н/о н/о +3.0 -1.4 73 -3 -3 1007.7 1006.7
12 16.09 В 7-11
{14}
н/о н/о +2.2 -1.1 79 -4 -4 1006.3 1005.3
15 16.09 В 6
{12}
н/о н/о +0.5 -0.6 92 -6 -6 1005.0 1004.0
18 16.09 В 7-11
{11}
н/о н/о +0.5 -0.4 94 -7 -7 1003.7 1002.7 +3.2 0.5
21 16.09 В 5
{11}
н/о н/о +0.7 -0.2 94 -5 -5 1001.0 1000.0
00 17.09 ЮВ 3 н/о н/о +0.5 -0.2 95 -4 -4 999.7 998.7
03 17.09 ЮВ 3 н/о н/о +0.2 -0.7 94 -5 -5 999.7 998.7 +0.2 1
06 17.09 ЮВ 3 н/о н/о +1.3 -0.2 90 -3 -3 998.3 997.3 +0.2 0.5
09 17.09 В 4 н/о н/о +2.6 +0.9 89 -2 -2 997.4 996.3
12 17.09 Ю 1 н/о н/о +2.2 +0.7 90 0 0 997.6 996.5
15 17.09 ЮВ 2 н/о н/о +0.8 +0.1 95 -3 -3 998.3 997.3
18 17.09 В 1 н/о н/о -0.5 -1.1 96 -3 -3 998.3 997.3 +3.5
21 17.09 В 1 н/о н/о -0.4 -1.0 96 -3 -3 999.7 998.7
00 18.09 В 2 н/о н/о -0.6 -1.0 97 -5 -5 999.7 998.7
03 18.09 В 2 н/о н/о -0.3 -0.9 96 -4 -4 999.7 998.7 -0.7
06 18.09 СВ 1 н/о н/о +0.7 +0.1 96 -1 999.7 998.7 -0.7
09 18.09 С 2 н/о н/о +1.9 +1.3 96 -2 999.7 998.7
12 18.09 СЗ 1 н/о н/о +3.0 +1.8 92 +1 1001.0 1000.0
15 18.09 З 4 н/о н/о +2.2 +1.3 94 -3 1001.0 1000.0 0.3
18 18.09 З 3 н/о н/о +1.9 +1.3 96 -3 1001.0 1000.0 +3.0 0.5
21 18.09 штиль 0 н/о н/о -0.1 -0.5 97 -1 1002.3 1001.3

 

Местоположение метеостанции Гыда (Ямало-Ненецкий АО, Россия): широта 70.88 долгота 78.47 высота над уровнем моря 8 м.

В архиве по умолчанию представлена погода в Гыде за последнюю неделю. Архивные данные за месяц целиком и за предыдущие месяцы, начиная с января 2011 года, Вы можете получить, выбрав интересующий диапазон дат из раскрывающегося списка и нажав кнопку "Ввод!".


*Определитесь, кто Вы:
робот инопланетянин человек

Внимание! Время в таблицах - всемирное. Для получения местного времени необходимо прибавить поправку, которая равна 5 ч.

Смотрите также архив погоды в соседних городах и на ближайших метеорологических станциях:

Погода в Сопочной Карге (Красноярский край, Россия) (186 км)
Погода в Карауле (Красноярский край, Россия) (196 км)
Погода в Антипаюте (Ямало-Ненецкий АО, Россия) (209 км)
Погода в Сеяхе (Ямало-Ненецкий АО, Россия) (234 км)
Погода в Тамбее (Ямало-Ненецкий АО, Россия) (248 км)
Погода на Острове Диксон (Красноярский край, Россия) (301 км)
Погода в Тазовском (Ямало-Ненецкий АО, Россия) (379 км)
Погода в Потапово (Красноярский край, Россия) (387 км)
Погода в Имени Попова (Ямало-Ненецкий АО, Россия) (396 км)
Погода в Норильске (Красноярский край, Россия) (409 км)

Пояснения к столбцам:

Ветер - указаны скорость ветра в м/с - средняя за 10 мин, порывы в срок и между сроками (в фигурных скобках) и направление, откуда дует ветер: С - северный, СВ - северо-восточный, В - восточный, ЮВ - юго-восточный, Ю - южный, ЮЗ - юго-западный, З - западный, СЗ - северо-западный.
Видимость - горизонтальная дальность видимости в метрах или километрах. При видимости от 1 до 10 км при отсутствии осадков обычно наблюдается дымка, при ухудшении видимости до 1 км и менее - туман. В сухую погоду видимость может ухудшаться дымом, пылью или мглою.
Явления - указаны атмосферные явления, наблюдавшиеся в срок или в последний час перед сроком; фигурными скобками обозначены явления, наблюдавшиеся между сроками (за 1-3 часа до срока); квадратными скобками обозначены град или гололедные отложения с указанием их диаметра в мм.
Облачность - указаны через наклонную черту общая и нижняя облачность в баллах и высота нижней границы облаков в метрах; квадратными скобками обозначены формы облаков: Ci - перистые, Cs - перисто-слоистые, Cc - перисто-кучевые, Ac - высококучевые, As - высокослоистые, Sc - слоисто-кучевые, Ns - слоисто-дождевые, Cu - кучевые, Cb - кучево-дождевые. Подробнее классификацию облаков см. в Атласе облаков (PDF).
T - Температура воздуха - температура, измеренная на высоте 2 м над землей.
Td - Температура точки росы - температура, при понижении до которой содержащийся в воздухе водяной пар достигнет насыщения.
f - Относительная влажность воздуха - влажноcть воздуха, измеренная на высоте 2 м над землей.
Te - Эффективная температура - температура, которую ощущает одетый по сезону человек в тени. Характеристика душности погоды. При расчете учитывается влияние влажности воздуха и скорости ветра на теплоощущения человека.
Tes - Эффективная температура на солнце - температура, которую ощущает человек, с поправкой на солнечный нагрев. Характеристика знойности погоды. Зависит от высоты солнца над горизонтом, облачности и скорости ветра. Ночью, в пасмурную погоду, а также при ветре 12 м/с и более поправка равна нулю.
P - Атмосферное давление - приведенное к уровню моря атмосферное давление.
Po - Атмосферное давление - измеренное на уровне метеостанции атмосферное давление.
Tmin - Минимальная температура - минимум температуры воздуха на высоте 2 м над землей.
Tmax - Максимальная температура - максимум температуры воздуха на высоте 2 м над землей.
R - Количество осадков - Количество выпавших осадков за период времени, мм. При наведении курсора мыши на число - период времени, за который выпало указанное количество осадков.
R24 - Количество осадков - Количество выпавших осадков за 24 часа, мм.
S - Снежный покров - Высота снежного покрова, см. При наведении курсора мыши на число - состояние снежного покрова и степень покрытия местности в баллах.